Weather History for West Plains, MO

Change the Weather History Date:

Tuesday, November 13, 2012

  Actual Average Record
Temperature  
Mean Temperature 40 °F 48 °F  
Max Temperature 54 °F 58 °F 81 °F (1955)
Min Temperature 26 °F 38 °F 7 °F (1986)
Degree Days  
Heating Degree Days 25 17  
Month to date heating degree days 217 193  
Since 1 July heating degree days 585 496  
Cooling Degree Days 0 0  
Month to date cooling degree days 0 0  
Year to date cooling degree days 1739 1352  
Moisture  
Dew Point 21 °F    
Average Humidity 52    
Maximum Humidity 82    
Minimum Humidity 26    
Precipitation  
Precipitation 0.00 in 0.16 in 1.04 in (1993)
Month to date precipitation 1.30 1.88  
Year to date precipitation 29.56 39.88  
Sea Level Pressure  
Sea Level Pressure 30.48 in    
Wind  
Wind Speed 2 mph (ENE)    
Max Wind Speed 8 mph    
Max Gust Speed 10 mph    
Visibility 10 miles    
Events      
T = Trace of Precipitation, MM = Missing Value Source: NWS Daily Summary

Daily Weather History Graph

Daily Weather History Graph

Search for Another Location

Airport:

Trip Planner

Search our weather history database for the weather conditions in past years. The results will help you decide how hot, cold, wet, or windy it might be!

Date:

Astronomy

Nov. 13, 2012 Rise Set
Actual Time 6:44 AM CST 4:59 PM CST
Civil Twilight 6:16 AM CST 5:26 PM CST
Nautical Twilight 5:45 AM CST 5:57 PM CST
Astronomical Twilight 5:14 AM CST 6:28 PM CST
Moon 6:22 AM CST (11/13) 4:53 PM CST (11/13)
Length of Visible Light 11h 09m
Length of Day
10h 14m
Waning Crescent, 0% of the Moon is Illuminated
Nov 13
Waning Crescent
Nov 13
New
Nov 20
First Quarter
Nov 28
Full
Dec 6
Last Quarter

Hourly Weather History & Observations

Time (CST) Temp. Windchill Dew Point Humidity Pressure Visibility Wind Dir Wind Speed Gust Speed Precip Events Conditions
12:53 AM 28.0 °F 24.2 °F 21.9 °F 78% 30.49 in 10.0 mi WSW 3.5 mph - N/A   Clear
1:53 AM 28.9 °F 25.2 °F 21.0 °F 72% 30.49 in 10.0 mi West 3.5 mph - N/A   Clear
2:53 AM 30.9 °F - 21.0 °F 67% 30.48 in 10.0 mi Calm Calm - N/A   Clear
3:53 AM 30.0 °F 25.2 °F 21.0 °F 69% 30.49 in 10.0 mi WNW 4.6 mph - N/A   Clear
4:53 AM 27.0 °F - 21.0 °F 78% 30.51 in 10.0 mi Calm Calm - N/A   Clear
6:53 AM 26.1 °F - 21.0 °F 81% 30.53 in 10.0 mi Calm Calm - N/A   Clear
7:53 AM 30.9 °F - 26.1 °F 82% 30.54 in 10.0 mi Calm Calm - N/A   Clear
8:53 AM 43.0 °F 41.3 °F 24.1 °F 47% 30.53 in 10.0 mi NNE 3.5 mph - N/A   Clear
9:53 AM 46.0 °F 44.8 °F 21.0 °F 37% 30.53 in 10.0 mi ENE 3.5 mph - N/A   Clear
10:53 AM 46.9 °F - 17.1 °F 30% 30.53 in 10.0 mi Calm Calm - N/A   Clear
11:53 AM 48.9 °F - 18.0 °F 29% 30.49 in 10.0 mi Calm Calm - N/A   Clear
12:53 PM 51.1 °F - 19.9 °F 29% 30.46 in 10.0 mi Calm Calm - N/A   Clear
1:53 PM 52.0 °F - 19.9 °F 28% 30.43 in 10.0 mi NNE 5.8 mph - N/A   Clear
2:53 PM 52.0 °F - 18.0 °F 26% 30.42 in 10.0 mi NW 4.6 mph - N/A   Clear
3:53 PM 50.0 °F - 19.9 °F 31% 30.43 in 10.0 mi SSE 4.6 mph - N/A   Clear
4:53 PM 48.0 °F - 21.9 °F 36% 30.42 in 10.0 mi East 3.5 mph - N/A   Clear
5:53 PM 43.0 °F - 21.0 °F 42% 30.42 in 10.0 mi Calm Calm - N/A   Clear
6:53 PM 42.1 °F - 19.0 °F 40% 30.44 in 10.0 mi Calm Calm - N/A   Clear
7:53 PM 37.0 °F - 23.0 °F 57% 30.45 in 10.0 mi Calm Calm - N/A   Clear
8:53 PM 39.9 °F 36.7 °F 19.9 °F 45% 30.46 in 10.0 mi SSE 4.6 mph - N/A   Clear
9:53 PM 37.9 °F 35.5 °F 24.1 °F 57% 30.47 in 10.0 mi SE 3.5 mph - N/A   Clear
10:53 PM 34.0 °F - 23.0 °F 64% 30.47 in 10.0 mi Calm Calm - N/A   Clear
11:53 PM 33.1 °F - 25.0 °F 72% 30.45 in 10.0 mi Calm Calm - N/A   Clear